STARLINK-3898 (52458 NORAD) Tracking and Keplerian Element Data
This shows tracking and keplerian element data for the satellite.
Feedback or suggestion? Click here.
Element | Value |
Catalog | 52458 |
Name | STARLINK-3898 |
Epoch Orbit | 130 |
Epoch Day | 167.08334491 |
Epoch Year | 2022 |
RAAN | 68.1189 |
Inclination | 53.2175 |
Eccentricity | 0.0001648 |
Argument of Perigee | 45.3417 |
Mean Anonmoly | 37.3876 |
Mean Motion | 15.39249314 |
Decay Rate | -0.0070258 |
L1 | 1 52458U 22049H 22167.08334491 -.00702580 00000+0 -19203-1 0 9990 |
L2 | 2 52458 53.2175 68.1189 0001648 45.3417 37.3876 15.39249314 1304 |
Live tracking and technical data element details for STARLINK-3898 (NORAD 52458). STARLINK-3898 can be tracked NOW for your location showing map with azimuth and elevation plus other details from your city location.
Track the satellite on the map from your city or location and see movement details for azimuth, elevation, latitude, longitude, range, height, and movement on the map or in text.
IsCatalogInMostPopularTable: catalog: 52458, numindb: 1
Update: records affected: 1
GetName: 52458 STARLINK-3898
Hit Count: updated at: Sat, 25 Jun 2022 05:17:28 GMT